Location: *
(50.3194°N, 7.1067°E)
Time: 14:40:41
(UTC+00:00)

SAR-Lupe-2 - Pass Details

Date: 22 September 2019
Orbit: 481 x 485 km, 98.2° (Epoch: 07 October)

Event Time Altitude Azimuth Distance (km) Brightness Sun altitude
Rises 19:04:13 0° 13° (NNE) 2,564 7.3 -15.5°
Reaches altitude 10° 19:06:18 10° 12° (NNE) 1,677 6.4 -15.8°
Maximum altitude 19:09:54 79° 287° (WNW) 499 3.6 -16.3°
Drops below altitude 10° 19:13:28 10° 200° (SSW) 1,660 6.2 -16.9°
Sets 19:15:30 0° 199° (SSW) 2,533 7.2 -17.2°
